Starlink 31972

operational
NORAD ID: 59923 Int'l Des: 2024-106 Owner: SPXS Country: US Constellation: starlink
LEOCIRCULAR

关于 Starlink 31972

正在加载描述...

实时位置

正在加载3D地球...

即将过境

高度历史

Altitude vs Time

uPlot chart will show altitude changes over time

两行轨道根数

1 59923U 24106B 25350.33507036 .00002640 00000-0 10542-3 0 9990
2 59923 43.0067 83.3702 0001647 268.4329 91.6334 15.27577495 87828
Epoch: Dec 16, 2025 • Age: 20 hours

当前状态

高度 495.3 km
速度 7.62 km/s
星下点 -43.13°S, 160.82°W
发射日期 Jun 1, 2024
运行时间 1.5 years
类型 internet

技术详情

分类 Payload
质量 730.00 kg
干质量 700.00 kg
总质量 730.00 kg
长度 0.30 m
直径 4.10 m
跨度 29.00 m
形状 Box + pan
制造商 SPXS
平台类型 Starlink V2M
阶段状态 In Orbit
所有者/国家 SPXS/US

大型星座

Loading constellations...